Welcome to the New NWS' Forecast!
Most changes are behind the scenes, but click here for differences you might notice.

Regional Weather Roundup (RWR)

Issued by Gray - Portland, ME (GYX)

                            
704 
ASUS41 KGYX 231010
RWRGYX
WEATHER ROUNDUP FOR MAINE AND NEW HAMPSHIRE
NATIONAL WEATHER SERVICE GRAY ME
500 AM EST TUE JAN 23 2018

MEZ002-005-006-010-012-015-018-020-021-024-026-027-029-231100-
MAINE
  
CITY           SKY/WX    TMP DP  RH WIND       PRES   REMARKS
PORTLAND       CLOUDY    22  21  96 N9        30.08F FOG              
SANFORD        MIX PCPN  22  21  96 N9        30.05F FOG              
BAR HARBOR     MIX PCPN  29  28  96 E13G18    30.16F FOG     WCI  19  
WISCASSET      CLOUDY    24  24 100 CALM      30.11F FOG              
ROCKLAND       MIX PCPN  29  28  96 NE13      30.10F FOG     WCI  19  
FRYEBURG       CLOUDY    23  23 100 NE5       30.08F FOG              
LEWISTONAUBURN MIX PCPN  20  18  92 N10       30.10F FOG     WCI   9  
AUGUSTA        FRZ RAIN  19  17  92 N8        30.11F FOG              
WATERVILLE     MIX PCPN  19  17  92 NE10      30.08F FOG     WCI   7  
BANGOR         FLURRIES  19  16  88 NE9       30.17F                  
GREENVILLE       N/A     16  14  92 SE12      30.03F WCI   3          
MILLINOCKET    LGT SNOW  14  11  87 NE5       30.21F VSB 3/4          
HOULTON        SNOW      13   9  84 E9        30.21F VSB 1/2          
PRESQUE ISLE   HVY SNOW  10   9  92 E3        30.22F VSB 1/4          
FRENCHVILLE    LGT SNOW   6   3  87 E8        30.17F VSB 3/4          
CARIBOU        HVY SNOW  11   6  81 E5        30.20F VSB 1/4          
$$

NHZ002-005-008-009-011-012-014-231100-
NEW HAMPSHIRE
  
CITY           SKY/WX    TMP DP  RH WIND       PRES   REMARKS
PORTSMOUTH     CLOUDY    25  24  95 N3        30.02F FOG              
ROCHESTER      CLOUDY    24  24 100 N8        30.03F FOG              
NASHUA         LGT SNOW  28  27  96 NE5       30.02F FOG              
MANCHESTER     FOG       27  26  96 NE6       30.01F VSB 1            
CONCORD        CLOUDY    27  25  92 N5        30.01F FOG              
LACONIA        CLOUDY    24  23  96 E12       30.03F WCI  13          
PLYMOUTH       CLOUDY    27  26  96 CALM      30.01F                  
BERLIN         CLOUDY    32  26  78 S16G25    29.97F                  
WHITEFIELD     CLOUDY    37  31  78 N6        29.90F                  
JAFFREY        CLOUDY    28  28 100 VRB5      29.95F FOG              
KEENE          CLOUDY    31  29  92 CALM      29.97F                  
LEBANON        CLOUDY    30  28  92 CALM      29.95F                  
MT WASHINGTON  FOG       28  28 100 S55G67      N/A  VSB 0   WCI   8  
$$

VTZ005-007-008-231100-
VERMONT
  
CITY           SKY/WX    TMP DP  RH WIND       PRES   REMARKS
ST JOHNSBURY     N/A     32  32 100 MISG      29.91F                  
MONTPELIER     CLOUDY    30  30 100 S8        29.94F                  
BURLINGTON     MIX PCPN  37  33  85 S9G21     29.82F                  
$$

MAZ007-012-024-CTZ003-RIZ002-NYZ038-NYZ072-231100-
SOUTHERN NEW ENGLAND AND NY
  
CITY           SKY/WX    TMP DP  RH WIND       PRES   REMARKS
BOSTON         DRZL/FOG  33  33 100 NE8       30.01F VSB 3/4          
WORCESTER      FOG       28  27  96 NE6       29.96S VSB 1/4          
NANTUCKET      MOCLDY    45  45 100 SE18      30.02F                  
PROVIDENCE     FOG       38  38 100 N5        29.99F VSB 1/4          
HARTFORD       FOG       33  33 100 NW5       29.96F VSB 1/4          
ALBANY         CLOUDY    39  35  86 S10       29.84F                  
NEW YORK CITY  FOG       37  36  96 E7        29.88F VSB<1/4          
$$

ANZ081-ANZ082-ANZ150-NHZ014-MEZ023>029-231100-
COASTAL MARINE OBSERVATIONS
  
STATION/POSITION TIME  TEMP    WIND        PRES    WAVE
                       AIR SEA DIR/SP/G            HT/PER
                 (UTC) (F)     (DEG/KT/KT) (MB)    (FT/S)
MOUNT DESERT ROC 1000   39      80/ 30/ 32 1019.4F
MATINICUS ROCK   0900   40     100/ 23/ 25 1018.8F
ISLE OF SHOALS   0900   27      10/  3/  3 1018.0F
JEFFREYS LEDGE   0936      43                N/A     6/ 7
GEORGES BANK BUO 0850   43 53              1026.9    4/ 4
$$

.............KEY..............
   WCI - WIND CHILL
   TC  - TEMPERATURE IN CELSIUS
   VSB - VISIBILITY IN MILES
   HX  - HEAT INDEX
   FAIR- INDICATES FEW OR NO CLOUDS BELOW 12,000 FT, WITH NO 
         SIGNIFICANT WEATHER AND/OR OBSTRUCTIONS TO VISIBILITY.